Time,TemperatureF,DewpointF,PressureIn,WindDirection,WindDirectionDegrees,WindSpeedMPH,WindSpeedGustMPH,Humidity,HourlyPrecipIn,Conditions,Clouds,dailyrainin,SoftwareType,DateUTC
2013-07-28 00:02:00,60.7,51.0,30.04,NNW,343,0.0,1.0,70,0.00,,,0.00,WUHU216DAVISVP2,2013-07-28 07:02:00,
2013-07-28 00:07:00,60.5,51.6,30.03,SW,222,0.0,1.0,72,0.00,,,0.00,WUHU216DAVISVP2,2013-07-28 07:07:00,
2013-07-28 00:12:00,60.3,51.7,30.03,SSW,212,0.0,1.0,73,0.00,,,0.00,WUHU216DAVISVP2,2013-07-28 07:12:00,
2013-07-28 00:17:00,60.2,51.9,30.03,SW,232,1.0,2.0,74,0.00,,,0.00,WUHU216DAVISVP2,2013-07-28 07:17:00,
2013-07-28 00:22:00,60.2,51.9,30.04,WSW,255,0.0,2.0,74,0.00,,,0.00,WUHU216DAVISVP2,2013-07-28 07:22:00,
2013-07-28 00:27:00,60.0,52.2,30.03,WSW,255,0.0,1.0,75,0.00,,,0.00,WUHU216DAVISVP2,2013-07-28 07:27:00,
2013-07-28 00:32:00,59.6,51.8,30.03,WSW,255,0.0,1.0,75,0.00,,,0.00,WUHU216DAVISVP2,2013-07-28 07:32:00,
2013-07-28 00:37:00,59.1,51.5,30.03,WSW,255,0.0,1.0,76,0.00,,,0.00,WUHU216DAVISVP2,2013-07-28 07:37:00,
2013-07-28 00:42:00,58.7,51.5,30.03,WSW,255,0.0,0.0,77,0.00,,,0.00,WUHU216DAVISVP2,2013-07-28 07:42:00,
2013-07-28 00:47:00,58.3,51.2,30.03,WSW,255,0.0,0.0,77,0.00,,,0.00,WUHU216DAVISVP2,2013-07-28 07:47:00,
2013-07-28 00:52:00,58.2,51.8,30.04,WSW,254,0.0,0.0,79,0.00,,,0.00,WUHU216DAVISVP2,2013-07-28 07:52:00,
2013-07-28 00:57:00,58.3,51.9,30.04,WSW,254,0.0,0.0,79,0.00,,,0.00,WUHU216DAVISVP2,2013-07-28 07:57:00,
2013-07-28 01:02:00,58.4,52.0,30.03,WSW,248,0.0,1.0,79,0.00,,,0.00,WUHU216DAVISVP2,2013-07-28 08:02:00,
2013-07-28 01:07:00,58.6,51.8,30.04,WSW,249,0.0,1.0,78,0.00,,,0.00,WUHU216DAVISVP2,2013-07-28 08:07:00,
2013-07-28 01:12:00,58.4,51.6,30.04,WSW,249,0.0,1.0,78,0.00,,,0.00,WUHU216DAVISVP2,2013-07-28 08:12:00,
2013-07-28 01:17:00,58.1,51.3,30.03,WSW,249,0.0,1.0,78,0.00,,,0.00,WUHU216DAVISVP2,2013-07-28 08:17:00,
2013-07-28 01:22:00,57.8,51.4,30.03,WSW,249,0.0,1.0,79,0.00,,,0.00,WUHU216DAVISVP2,2013-07-28 08:22:00,
2013-07-28 01:27:00,57.4,51.3,30.03,WSW,249,0.0,0.0,80,0.00,,,0.00,WUHU216DAVISVP2,2013-07-28 08:27:00,
2013-07-28 01:32:00,57.2,51.1,30.03,WSW,249,0.0,0.0,80,0.00,,,0.00,WUHU216DAVISVP2,2013-07-28 08:32:00,
2013-07-28 01:37:00,56.9,50.8,30.03,WSW,249,0.0,0.0,80,0.00,,,0.00,WUHU216DAVISVP2,2013-07-28 08:37:00,
2013-07-28 01:42:00,56.7,51.0,30.04,WSW,248,0.0,0.0,81,0.00,,,0.00,WUHU216DAVISVP2,2013-07-28 08:42:00,
2013-07-28 01:47:00,56.6,51.2,30.03,WSW,250,0.0,0.0,82,0.00,,,0.00,WUHU216DAVISVP2,2013-07-28 08:47:00,
2013-07-28 01:52:00,56.8,51.4,30.03,WSW,253,0.0,1.0,82,0.00,,,0.00,WUHU216DAVISVP2,2013-07-28 08:52:00,
2013-07-28 01:57:00,56.9,51.8,30.03,ENE,58,0.0,1.0,83,0.00,,,0.00,WUHU216DAVISVP2,2013-07-28 08:57:00,
2013-07-28 02:02:00,57.0,52.2,30.03,South,183,0.0,1.0,84,0.00,,,0.00,WUHU216DAVISVP2,2013-07-28 09:02:00,
2013-07-28 02:07:00,57.2,52.4,30.04,SW,233,0.0,2.0,84,0.00,,,0.00,WUHU216DAVISVP2,2013-07-28 09:07:00,
2013-07-28 02:12:00,57.4,52.6,30.04,SW,232,0.0,4.0,84,0.00,,,0.00,WUHU216DAVISVP2,2013-07-28 09:12:00,
2013-07-28 02:17:00,57.6,53.1,30.03,SW,226,2.0,7.0,85,0.00,,,0.00,WUHU216DAVISVP2,2013-07-28 09:17:00,
2013-07-28 02:22:00,57.5,53.0,30.04,WSW,248,5.0,7.0,85,0.00,,,0.00,WUHU216DAVISVP2,2013-07-28 09:22:00,
2013-07-28 02:27:00,57.3,53.1,30.04,WSW,245,5.0,7.0,86,0.00,,,0.00,WUHU216DAVISVP2,2013-07-28 09:27:00,
2013-07-28 02:32:00,57.2,53.0,30.03,WSW,248,0.0,7.0,86,0.00,,,0.00,WUHU216DAVISVP2,2013-07-28 09:32:00,
2013-07-28 02:37:00,57.0,52.8,30.03,SW,226,3.0,8.0,86,0.00,,,0.00,WUHU216DAVISVP2,2013-07-28 09:37:00,
2013-07-28 02:42:00,56.7,52.6,30.04,SSW,212,6.0,8.0,86,0.00,,,0.00,WUHU216DAVISVP2,2013-07-28 09:42:00,
2013-07-28 02:47:00,56.3,52.5,30.04,SW,231,2.0,7.0,87,0.00,,,0.00,WUHU216DAVISVP2,2013-07-28 09:47:00,
2013-07-28 02:52:00,56.2,52.4,30.04,WSW,252,3.0,7.0,87,0.00,,,0.00,WUHU216DAVISVP2,2013-07-28 09:52:00,
2013-07-28 02:57:00,56.0,52.2,30.04,SSW,202,3.0,7.0,87,0.00,,,0.00,WUHU216DAVISVP2,2013-07-28 09:57:00,
2013-07-28 03:02:00,55.8,52.0,30.04,SSW,203,2.0,8.0,87,0.00,,,0.00,WUHU216DAVISVP2,2013-07-28 10:02:00,
2013-07-28 03:07:00,55.6,52.1,30.04,SW,217,3.0,8.0,88,0.00,,,0.00,WUHU216DAVISVP2,2013-07-28 10:07:00,
2013-07-28 03:12:00,55.4,51.9,30.04,South,190,2.0,7.0,88,0.00,,,0.00,WUHU216DAVISVP2,2013-07-28 10:12:00,
2013-07-28 03:17:00,55.3,51.8,30.04,WSW,240,5.0,7.0,88,0.00,,,0.00,WUHU216DAVISVP2,2013-07-28 10:17:00,
2013-07-28 03:22:00,55.2,51.7,30.04,SW,222,4.0,7.0,88,0.00,,,0.00,WUHU216DAVISVP2,2013-07-28 10:22:00,
2013-07-28 03:27:00,55.0,51.5,30.04,SW,228,5.0,9.0,88,0.00,,,0.00,WUHU216DAVISVP2,2013-07-28 10:27:00,
2013-07-28 03:32:00,54.9,51.4,30.04,West,262,3.0,9.0,88,0.00,,,0.00,WUHU216DAVISVP2,2013-07-28 10:32:00,
2013-07-28 03:37:00,54.7,51.5,30.04,SSW,193,5.0,8.0,89,0.00,,,0.00,WUHU216DAVISVP2,2013-07-28 10:37:00,
2013-07-28 03:42:00,54.6,51.4,30.04,SW,220,6.0,8.0,89,0.00,,,0.00,WUHU216DAVISVP2,2013-07-28 10:42:00,
2013-07-28 03:47:00,54.3,51.1,30.04,WSW,250,4.0,8.0,89,0.00,,,0.00,WUHU216DAVISVP2,2013-07-28 10:47:00,
2013-07-28 03:52:00,54.0,51.1,30.04,South,181,2.0,8.0,90,0.00,,,0.00,WUHU216DAVISVP2,2013-07-28 10:52:00,
2013-07-28 03:57:00,53.7,51.1,30.04,SSW,211,3.0,9.0,91,0.00,,,0.00,WUHU216DAVISVP2,2013-07-28 10:57:00,
2013-07-28 04:02:00,53.5,50.9,30.04,WSW,239,4.0,10.0,91,0.00,,,0.00,WUHU216DAVISVP2,2013-07-28 11:02:00,
2013-07-28 04:07:00,53.2,50.9,30.04,SW,224,8.0,10.0,92,0.00,,,0.00,WUHU216DAVISVP2,2013-07-28 11:07:00,
2013-07-28 04:12:00,53.0,50.7,30.04,SW,231,5.0,9.0,92,0.00,,,0.00,WUHU216DAVISVP2,2013-07-28 11:12:00,
2013-07-28 04:17:00,52.9,50.6,30.04,SW,228,6.0,11.0,92,0.00,,,0.00,WUHU216DAVISVP2,2013-07-28 11:17:00,
2013-07-28 04:22:00,52.8,50.8,30.04,WSW,239,4.0,11.0,93,0.00,,,0.00,WUHU216DAVISVP2,2013-07-28 11:22:00,
2013-07-28 04:27:00,52.7,50.7,30.04,WSW,248,7.0,10.0,93,0.00,,,0.00,WUHU216DAVISVP2,2013-07-28 11:27:00,
2013-07-28 04:32:00,52.7,50.7,30.04,SSW,200,4.0,10.0,93,0.00,,,0.00,WUHU216DAVISVP2,2013-07-28 11:32:00,
2013-07-28 04:37:00,52.6,50.6,30.04,SW,235,7.0,11.0,93,0.00,,,0.00,WUHU216DAVISVP2,2013-07-28 11:37:00,
2013-07-28 04:42:00,52.5,50.5,30.04,SW,232,3.0,11.0,93,0.00,,,0.00,WUHU216DAVISVP2,2013-07-28 11:42:00,
2013-07-28 04:47:00,52.5,50.5,30.04,SW,232,4.0,11.0,93,0.00,,,0.00,WUHU216DAVISVP2,2013-07-28 11:47:00,
2013-07-28 04:52:00,52.5,50.8,30.04,SW,228,8.0,10.0,94,0.00,,,0.00,WUHU216DAVISVP2,2013-07-28 11:52:00,
2013-07-28 04:57:00,52.6,50.9,30.04,WSW,239,3.0,9.0,94,0.00,,,0.00,WUHU216DAVISVP2,2013-07-28 11:57:00,
2013-07-28 05:02:00,52.7,51.0,30.04,SSW,210,2.0,9.0,94,0.00,,,0.00,WUHU216DAVISVP2,2013-07-28 12:02:00,
2013-07-28 05:07:00,52.8,51.1,30.04,SW,226,1.0,8.0,94,0.00,,,0.00,WUHU216DAVISVP2,2013-07-28 12:07:00,
2013-07-28 05:12:00,52.9,50.9,30.04,WSW,243,1.0,9.0,93,0.00,,,0.00,WUHU216DAVISVP2,2013-07-28 12:12:00,
2013-07-28 05:17:00,53.0,51.0,30.04,ESE,122,3.0,9.0,93,0.00,,,0.00,WUHU216DAVISVP2,2013-07-28 12:17:00,
2013-07-28 05:22:00,53.0,51.0,30.04,SSW,208,4.0,10.0,93,0.00,,,0.00,WUHU216DAVISVP2,2013-07-28 12:22:00,
2013-07-28 05:27:00,53.1,51.1,30.04,WSW,246,4.0,10.0,93,0.00,,,0.00,WUHU216DAVISVP2,2013-07-28 12:27:00,
2013-07-28 05:32:00,53.2,51.2,30.04,WSW,238,3.0,9.0,93,0.00,,,0.00,WUHU216DAVISVP2,2013-07-28 12:32:00,
2013-07-28 05:37:00,53.2,50.9,30.04,SW,232,7.0,10.0,92,0.00,,,0.00,WUHU216DAVISVP2,2013-07-28 12:37:00,
2013-07-28 05:42:00,53.1,51.1,30.04,SW,236,6.0,10.0,93,0.00,,,0.00,WUHU216DAVISVP2,2013-07-28 12:42:00,
2013-07-28 05:47:00,52.9,50.9,30.04,SW,228,9.0,9.0,93,0.00,,,0.00,WUHU216DAVISVP2,2013-07-28 12:47:00,
2013-07-28 05:52:00,52.8,50.8,30.04,SW,217,5.0,11.0,93,0.00,,,0.00,WUHU216DAVISVP2,2013-07-28 12:52:00,
2013-07-28 05:57:00,52.8,50.8,30.04,SW,218,4.0,11.0,93,0.00,,,0.00,WUHU216DAVISVP2,2013-07-28 12:57:00,
2013-07-28 06:02:00,52.8,50.8,30.04,SW,225,6.0,10.0,93,0.00,,,0.00,WUHU216DAVISVP2,2013-07-28 13:02:00,
2013-07-28 06:07:00,52.8,50.8,30.04,SW,229,3.0,10.0,93,0.00,,,0.00,WUHU216DAVISVP2,2013-07-28 13:07:00,
2013-07-28 06:12:00,52.8,50.8,30.04,West,262,8.0,8.0,93,0.00,,,0.00,WUHU216DAVISVP2,2013-07-28 13:12:00,
2013-07-28 06:17:00,52.8,50.8,30.04,SW,225,0.0,11.0,93,0.00,,,0.00,WUHU216DAVISVP2,2013-07-28 13:17:00,
2013-07-28 06:22:00,52.8,50.8,30.04,WSW,238,2.0,11.0,93,0.00,,,0.00,WUHU216DAVISVP2,2013-07-28 13:22:00,
2013-07-28 06:27:00,52.7,50.7,30.05,SSE,153,2.0,11.0,93,0.00,,,0.00,WUHU216DAVISVP2,2013-07-28 13:27:00,
2013-07-28 06:32:00,52.8,51.1,30.05,South,186,2.0,10.0,94,0.00,,,0.00,WUHU216DAVISVP2,2013-07-28 13:32:00,
2013-07-28 06:37:00,52.8,50.8,30.05,SSW,193,2.0,9.0,93,0.00,,,0.00,WUHU216DAVISVP2,2013-07-28 13:37:00,
2013-07-28 06:42:00,52.8,50.8,30.05,SW,222,2.0,9.0,93,0.00,,,0.00,WUHU216DAVISVP2,2013-07-28 13:42:00,
2013-07-28 06:47:00,52.8,50.8,30.05,SSW,203,3.0,9.0,93,0.00,,,0.00,WUHU216DAVISVP2,2013-07-28 13:47:00,
2013-07-28 06:52:00,52.8,50.8,30.05,SW,236,8.0,9.0,93,0.00,,,0.00,WUHU216DAVISVP2,2013-07-28 13:52:00,
2013-07-28 06:57:00,52.7,50.7,30.05,SW,232,6.0,11.0,93,0.00,,,0.00,WUHU216DAVISVP2,2013-07-28 13:57:00,
2013-07-28 07:02:00,52.8,51.1,30.05,WSW,248,6.0,11.0,94,0.00,,,0.00,WUHU216DAVISVP2,2013-07-28 14:02:00,
2013-07-28 07:07:00,52.9,50.9,30.05,SW,236,6.0,11.0,93,0.00,,,0.00,WUHU216DAVISVP2,2013-07-28 14:07:00,
2013-07-28 07:12:00,52.9,50.9,30.05,SSW,198,3.0,10.0,93,0.00,,,0.00,WUHU216DAVISVP2,2013-07-28 14:12:00,
2013-07-28 07:17:00,53.0,51.0,30.05,SW,221,4.0,10.0,93,0.00,,,0.00,WUHU216DAVISVP2,2013-07-28 14:17:00,
2013-07-28 07:22:00,53.0,51.0,30.05,SSW,208,5.0,10.0,93,0.00,,,0.00,WUHU216DAVISVP2,2013-07-28 14:22:00,
2013-07-28 07:27:00,53.1,51.1,30.06,West,260,6.0,10.0,93,0.00,,,0.00,WUHU216DAVISVP2,2013-07-28 14:27:00,
2013-07-28 07:32:00,53.1,50.8,30.06,WSW,251,7.0,11.0,92,0.00,,,0.00,WUHU216DAVISVP2,2013-07-28 14:32:00,
2013-07-28 07:37:00,53.1,51.1,30.06,SW,214,3.0,11.0,93,0.00,,,0.00,WUHU216DAVISVP2,2013-07-28 14:37:00,
2013-07-28 07:42:00,53.2,51.2,30.06,SW,226,3.0,11.0,93,0.00,,,0.00,WUHU216DAVISVP2,2013-07-28 14:42:00,
2013-07-28 07:47:00,53.3,51.0,30.06,SSW,210,4.0,10.0,92,0.00,,,0.00,WUHU216DAVISVP2,2013-07-28 14:47:00,
2013-07-28 07:52:00,53.2,50.9,30.06,SW,215,3.0,10.0,92,0.00,,,0.00,WUHU216DAVISVP2,2013-07-28 14:52:00,
2013-07-28 07:57:00,53.2,51.2,30.06,WSW,256,3.0,9.0,93,0.00,,,0.00,WUHU216DAVISVP2,2013-07-28 14:57:00,
2013-07-28 08:03:00,53.3,51.3,30.06,SSW,197,3.0,8.0,93,0.00,,,0.00,WUHU216DAVISVP2,2013-07-28 15:03:00,
2013-07-28 08:08:00,53.4,51.4,30.06,South,190,1.0,8.0,93,0.00,,,0.00,WUHU216DAVISVP2,2013-07-28 15:08:00,
2013-07-28 08:13:00,53.6,51.3,30.06,SW,219,4.0,8.0,92,0.00,,,0.00,WUHU216DAVISVP2,2013-07-28 15:13:00,
2013-07-28 08:18:00,53.5,51.2,30.06,WSW,248,6.0,10.0,92,0.00,,,0.00,WUHU216DAVISVP2,2013-07-28 15:18:00,
2013-07-28 08:23:00,53.6,51.3,30.06,West,262,3.0,10.0,92,0.00,,,0.00,WUHU216DAVISVP2,2013-07-28 15:23:00,
2013-07-28 08:28:00,53.7,51.4,30.06,WSW,249,4.0,9.0,92,0.00,,,0.00,WUHU216DAVISVP2,2013-07-28 15:28:00,
2013-07-28 08:33:00,53.7,51.4,30.06,SSW,195,2.0,9.0,92,0.00,,,0.00,WUHU216DAVISVP2,2013-07-28 15:33:00,
2013-07-28 08:38:00,53.9,51.6,30.06,SSW,200,1.0,9.0,92,0.00,,,0.00,WUHU216DAVISVP2,2013-07-28 15:38:00,
2013-07-28 08:43:00,53.9,51.3,30.06,SW,233,7.0,10.0,91,0.00,,,0.00,WUHU216DAVISVP2,2013-07-28 15:43:00,
2013-07-28 08:48:00,54.0,51.4,30.06,South,190,2.0,10.0,91,0.00,,,0.00,WUHU216DAVISVP2,2013-07-28 15:48:00,
2013-07-28 08:53:00,54.2,51.6,30.06,SW,232,4.0,9.0,91,0.00,,,0.00,WUHU216DAVISVP2,2013-07-28 15:53:00,
2013-07-28 08:58:00,54.2,51.3,30.06,WSW,240,4.0,9.0,90,0.00,,,0.00,WUHU216DAVISVP2,2013-07-28 15:58:00,
2013-07-28 09:03:00,54.3,51.4,30.07,SW,225,5.0,10.0,90,0.00,,,0.00,WUHU216DAVISVP2,2013-07-28 16:03:00,
2013-07-28 09:08:00,54.3,51.4,30.06,SW,232,8.0,10.0,90,0.00,,,0.00,WUHU216DAVISVP2,2013-07-28 16:08:00,
2013-07-28 09:13:00,54.3,51.4,30.07,SSW,204,4.0,10.0,90,0.00,,,0.00,WUHU216DAVISVP2,2013-07-28 16:13:00,
2013-07-28 09:18:00,54.6,51.4,30.07,SSE,167,5.0,11.0,89,0.00,,,0.00,WUHU216DAVISVP2,2013-07-28 16:18:00,
2013-07-28 09:23:00,54.7,51.5,30.06,WSW,252,8.0,11.0,89,0.00,,,0.00,WUHU216DAVISVP2,2013-07-28 16:23:00,
2013-07-28 09:28:00,54.8,51.6,30.07,West,270,4.0,10.0,89,0.00,,,0.00,WUHU216DAVISVP2,2013-07-28 16:28:00,
2013-07-28 09:33:00,54.9,51.4,30.07,SW,235,2.0,10.0,88,0.00,,,0.00,WUHU216DAVISVP2,2013-07-28 16:33:00,
2013-07-28 09:38:00,54.9,51.4,30.07,SW,222,0.0,13.0,88,0.00,,,0.00,WUHU216DAVISVP2,2013-07-28 16:38:00,
2013-07-28 09:43:00,55.0,51.5,30.07,SW,226,7.0,13.0,88,0.00,,,0.00,WUHU216DAVISVP2,2013-07-28 16:43:00,
2013-07-28 09:48:00,54.9,51.1,30.06,SW,226,10.0,12.0,87,0.00,,,0.00,WUHU216DAVISVP2,2013-07-28 16:48:00,
2013-07-28 09:53:00,55.0,51.2,30.07,WSW,242,10.0,13.0,87,0.00,,,0.00,WUHU216DAVISVP2,2013-07-28 16:53:00,
2013-07-28 09:58:00,55.0,51.2,30.07,SW,226,10.0,13.0,87,0.00,,,0.00,WUHU216DAVISVP2,2013-07-28 16:58:00,
2013-07-28 10:03:00,55.0,51.2,30.07,SSW,212,4.0,15.0,87,0.00,,,0.00,WUHU216DAVISVP2,2013-07-28 17:03:00,
2013-07-28 10:08:00,55.0,51.2,30.07,WSW,257,6.0,15.0,87,0.00,,,0.00,WUHU216DAVISVP2,2013-07-28 17:08:00,
2013-07-28 10:13:00,55.3,51.2,30.07,SSW,212,5.0,14.0,86,0.00,,,0.00,WUHU216DAVISVP2,2013-07-28 17:13:00,
2013-07-28 10:18:00,55.4,51.6,30.06,WSW,255,2.0,14.0,87,0.00,,,0.00,WUHU216DAVISVP2,2013-07-28 17:18:00,
2013-07-28 10:23:00,55.5,51.1,30.07,WSW,257,7.0,12.0,85,0.00,,,0.00,WUHU216DAVISVP2,2013-07-28 17:23:00,
2013-07-28 10:28:00,55.6,51.2,30.07,SW,232,5.0,13.0,85,0.00,,,0.00,WUHU216DAVISVP2,2013-07-28 17:28:00,
2013-07-28 10:33:00,55.9,51.5,30.07,WNW,294,2.0,13.0,85,0.00,,,0.00,WUHU216DAVISVP2,2013-07-28 17:33:00,
2013-07-28 10:38:00,55.9,51.5,30.07,NW,310,1.0,12.0,85,0.00,,,0.00,WUHU216DAVISVP2,2013-07-28 17:38:00,
2013-07-28 10:43:00,56.0,51.6,30.07,WSW,243,5.0,12.0,85,0.00,,,0.00,WUHU216DAVISVP2,2013-07-28 17:43:00,
2013-07-28 10:48:00,56.4,51.6,30.07,West,264,5.0,10.0,84,0.00,,,0.00,WUHU216DAVISVP2,2013-07-28 17:48:00,
2013-07-28 10:53:00,56.4,51.3,30.07,West,263,3.0,10.0,83,0.00,,,0.00,WUHU216DAVISVP2,2013-07-28 17:53:00,
2013-07-28 10:58:00,56.5,51.7,30.07,ESE,106,5.0,10.0,84,0.00,,,0.00,WUHU216DAVISVP2,2013-07-28 17:58:00,
2013-07-28 11:03:00,56.6,51.5,30.07,WSW,249,3.0,12.0,83,0.00,,,0.00,WUHU216DAVISVP2,2013-07-28 18:03:00,
2013-07-28 11:08:00,56.7,51.6,30.07,SE,126,4.0,12.0,83,0.00,,,0.00,WUHU216DAVISVP2,2013-07-28 18:08:00,
2013-07-28 11:13:00,56.8,51.7,30.07,South,172,2.0,11.0,83,0.00,,,0.00,WUHU216DAVISVP2,2013-07-28 18:13:00,
2013-07-28 11:18:00,57.5,52.1,30.07,WSW,240,4.0,11.0,82,0.00,,,0.00,WUHU216DAVISVP2,2013-07-28 18:18:00,
2013-07-28 11:23:00,57.3,51.6,30.07,SW,232,8.0,13.0,81,0.00,,,0.00,WUHU216DAVISVP2,2013-07-28 18:23:00,
2013-07-28 11:28:00,57.3,51.9,30.07,WSW,238,5.0,13.0,82,0.00,,,0.00,WUHU216DAVISVP2,2013-07-28 18:28:00,
2013-07-28 11:33:00,57.5,52.1,30.07,South,176,2.0,12.0,82,0.00,,,0.00,WUHU216DAVISVP2,2013-07-28 18:33:00,
2013-07-28 11:38:00,57.9,52.1,30.07,SW,221,6.0,12.0,81,0.00,,,0.00,WUHU216DAVISVP2,2013-07-28 18:38:00,
2013-07-28 11:43:00,57.9,52.1,30.06,WSW,238,7.0,11.0,81,0.00,,,0.00,WUHU216DAVISVP2,2013-07-28 18:43:00,
2013-07-28 11:48:00,57.8,52.0,30.06,WSW,238,6.0,12.0,81,0.00,,,0.00,WUHU216DAVISVP2,2013-07-28 18:48:00,
2013-07-28 11:53:00,58.2,52.1,30.06,SSE,160,6.0,12.0,80,0.00,,,0.00,WUHU216DAVISVP2,2013-07-28 18:53:00,
2013-07-28 11:58:00,58.3,52.2,30.06,SSW,205,1.0,12.0,80,0.00,,,0.00,WUHU216DAVISVP2,2013-07-28 18:58:00,
2013-07-28 12:03:00,58.8,52.4,30.06,WSW,248,11.0,12.0,79,0.00,,,0.00,WUHU216DAVISVP2,2013-07-28 19:03:00,
2013-07-28 12:08:00,58.8,52.4,30.06,SW,224,4.0,12.0,79,0.00,,,0.00,WUHU216DAVISVP2,2013-07-28 19:08:00,
2013-07-28 12:13:00,59.1,52.3,30.06,SSW,208,3.0,12.0,78,0.00,,,0.00,WUHU216DAVISVP2,2013-07-28 19:13:00,
2013-07-28 12:18:00,58.9,52.1,30.06,SSW,205,6.0,12.0,78,0.00,,,0.00,WUHU216DAVISVP2,2013-07-28 19:18:00,
2013-07-28 12:23:00,58.7,52.3,30.06,WSW,238,8.0,14.0,79,0.00,,,0.00,WUHU216DAVISVP2,2013-07-28 19:23:00,
2013-07-28 12:27:00,59.0,52.2,30.06,SW,229,8.0,14.0,78,0.00,,,0.00,WUHU216DAVISVP2,2013-07-28 19:27:00,
2013-07-28 12:32:00,59.5,52.7,30.06,WSW,245,2.0,13.0,78,0.00,,,0.00,WUHU216DAVISVP2,2013-07-28 19:32:00,
2013-07-28 12:38:00,60.1,53.0,30.06,SSW,211,3.0,13.0,77,0.00,,,0.00,WUHU216DAVISVP2,2013-07-28 19:38:00,
2013-07-28 12:43:00,60.5,52.6,30.06,SW,236,4.0,11.0,75,0.00,,,0.00,WUHU216DAVISVP2,2013-07-28 19:43:00,
2013-07-28 12:48:00,60.9,53.4,30.06,SW,226,4.0,11.0,76,0.00,,,0.00,WUHU216DAVISVP2,2013-07-28 19:48:00,
2013-07-28 12:53:00,61.1,53.1,30.06,WSW,239,8.0,11.0,75,0.00,,,0.00,WUHU216DAVISVP2,2013-07-28 19:53:00,
2013-07-28 12:58:00,60.6,53.1,30.06,WSW,242,10.0,14.0,76,0.00,,,0.00,WUHU216DAVISVP2,2013-07-28 19:58:00,
2013-07-28 13:03:00,60.7,53.2,30.06,SW,235,1.0,14.0,76,0.00,,,0.00,WUHU216DAVISVP2,2013-07-28 20:03:00,
2013-07-28 13:08:00,60.9,52.7,30.06,West,270,5.0,14.0,74,0.00,,,0.00,WUHU216DAVISVP2,2013-07-28 20:08:00,
2013-07-28 13:13:00,61.0,53.0,30.06,WSW,242,2.0,14.0,75,0.00,,,0.00,WUHU216DAVISVP2,2013-07-28 20:13:00,
2013-07-28 13:18:00,61.8,53.5,30.06,SW,226,1.0,13.0,74,0.00,,,0.00,WUHU216DAVISVP2,2013-07-28 20:18:00,
2013-07-28 13:23:00,61.6,53.3,30.06,South,183,4.0,12.0,74,0.00,,,0.00,WUHU216DAVISVP2,2013-07-28 20:23:00,
2013-07-28 13:28:00,61.5,53.3,30.06,WSW,250,6.0,14.0,74,0.00,,,0.00,WUHU216DAVISVP2,2013-07-28 20:28:00,
2013-07-28 13:33:00,61.4,53.2,30.06,SW,214,13.0,15.0,74,0.00,,,0.00,WUHU216DAVISVP2,2013-07-28 20:33:00,
2013-07-28 13:38:00,61.8,53.1,30.06,SSW,200,6.0,15.0,73,0.00,,,0.00,WUHU216DAVISVP2,2013-07-28 20:38:00,
2013-07-28 13:43:00,62.0,53.4,30.06,SW,226,7.0,15.0,73,0.00,,,0.00,WUHU216DAVISVP2,2013-07-28 20:43:00,
2013-07-28 13:48:00,61.6,53.3,30.06,SSE,156,6.0,15.0,74,0.00,,,0.00,WUHU216DAVISVP2,2013-07-28 20:48:00,
2013-07-28 13:53:00,62.3,53.7,30.06,West,272,3.0,14.0,73,0.00,,,0.00,WUHU216DAVISVP2,2013-07-28 20:53:00,
2013-07-28 13:58:00,62.2,53.9,30.05,SSW,208,3.0,13.0,74,0.00,,,0.00,WUHU216DAVISVP2,2013-07-28 20:58:00,
2013-07-28 14:03:00,62.6,54.0,30.05,SW,232,9.0,14.0,73,0.00,,,0.00,WUHU216DAVISVP2,2013-07-28 21:03:00,
2013-07-28 14:08:00,62.9,53.9,30.06,WSW,243,6.0,14.0,72,0.00,,,0.00,WUHU216DAVISVP2,2013-07-28 21:08:00,
2013-07-28 14:13:00,63.3,54.6,30.05,SW,225,12.0,14.0,73,0.00,,,0.00,WUHU216DAVISVP2,2013-07-28 21:13:00,
2013-07-28 14:18:00,62.8,53.8,30.05,North,1,4.0,14.0,72,0.00,,,0.00,WUHU216DAVISVP2,2013-07-28 21:18:00,
2013-07-28 14:23:00,63.2,54.2,30.05,SW,231,7.0,14.0,72,0.00,,,0.00,WUHU216DAVISVP2,2013-07-28 21:23:00,
2013-07-28 14:28:00,62.8,53.4,30.05,SSE,167,4.0,16.0,71,0.00,,,0.00,WUHU216DAVISVP2,2013-07-28 21:28:00,
2013-07-28 14:33:00,62.2,53.6,30.05,SW,231,6.0,16.0,73,0.00,,,0.00,WUHU216DAVISVP2,2013-07-28 21:33:00,
2013-07-28 14:38:00,62.0,53.6,30.05,South,185,1.0,15.0,74,0.00,,,0.00,WUHU216DAVISVP2,2013-07-28 21:38:00,
2013-07-28 14:43:00,62.1,53.8,30.05,SW,218,9.0,15.0,74,0.00,,,0.00,WUHU216DAVISVP2,2013-07-28 21:43:00,
2013-07-28 14:48:00,62.1,53.8,30.05,SSW,193,8.0,15.0,74,0.00,,,0.00,WUHU216DAVISVP2,2013-07-28 21:48:00,
2013-07-28 14:53:00,61.6,53.6,30.05,SW,231,6.0,15.0,75,0.00,,,0.00,WUHU216DAVISVP2,2013-07-28 21:53:00,
2013-07-28 14:58:00,61.5,53.6,30.05,WSW,243,3.0,14.0,75,0.00,,,0.00,WUHU216DAVISVP2,2013-07-28 21:58:00,
2013-07-28 15:03:00,61.9,53.6,30.05,West,264,5.0,15.0,74,0.00,,,0.00,WUHU216DAVISVP2,2013-07-28 22:03:00,
2013-07-28 15:08:00,62.1,53.5,30.05,SSW,205,6.0,15.0,73,0.00,,,0.00,WUHU216DAVISVP2,2013-07-28 22:08:00,
2013-07-28 15:13:00,61.6,53.7,30.05,SSW,204,8.0,16.0,75,0.00,,,0.00,WUHU216DAVISVP2,2013-07-28 22:13:00,
2013-07-28 15:18:00,62.1,53.8,30.05,SW,232,5.0,16.0,74,0.00,,,0.00,WUHU216DAVISVP2,2013-07-28 22:18:00,
2013-07-28 15:23:00,62.6,54.3,30.05,SSW,201,3.0,15.0,74,0.00,,,0.00,WUHU216DAVISVP2,2013-07-28 22:23:00,
2013-07-28 15:28:00,62.4,53.8,30.05,SSE,167,5.0,16.0,73,0.00,,,0.00,WUHU216DAVISVP2,2013-07-28 22:28:00,
2013-07-28 15:33:00,62.8,54.1,30.05,WSW,243,4.0,16.0,73,0.00,,,0.00,WUHU216DAVISVP2,2013-07-28 22:33:00,
2013-07-28 15:38:00,62.9,53.7,30.05,SW,221,8.0,16.0,72,0.00,,,0.00,WUHU216DAVISVP2,2013-07-28 22:38:00,
2013-07-28 15:43:00,62.9,53.9,30.04,SW,214,5.0,16.0,72,0.00,,,0.00,WUHU216DAVISVP2,2013-07-28 22:43:00,
2013-07-28 15:48:00,62.9,53.9,30.04,SW,217,11.0,15.0,72,0.00,,,0.00,WUHU216DAVISVP2,2013-07-28 22:48:00,
2013-07-28 15:53:00,63.3,54.6,30.04,ENE,74,3.0,15.0,73,0.00,,,0.00,WUHU216DAVISVP2,2013-07-28 22:53:00,
2013-07-28 15:58:00,63.7,54.3,30.04,WSW,246,6.0,15.0,71,0.00,,,0.00,WUHU216DAVISVP2,2013-07-28 22:58:00,
2013-07-28 16:03:00,63.9,54.5,30.04,SW,228,6.0,16.0,71,0.00,,,0.00,WUHU216DAVISVP2,2013-07-28 23:03:00,
2013-07-28 16:08:00,64.5,55.0,30.03,SSW,212,5.0,16.0,71,0.00,,,0.00,WUHU216DAVISVP2,2013-07-28 23:08:00,
2013-07-28 16:13:00,64.4,54.6,30.03,WSW,245,10.0,15.0,70,0.00,,,0.00,WUHU216DAVISVP2,2013-07-28 23:13:00,
2013-07-28 16:18:00,64.3,54.7,30.04,SW,214,8.0,16.0,71,0.00,,,0.00,WUHU216DAVISVP2,2013-07-28 23:18:00,
2013-07-28 16:23:00,64.9,55.0,30.03,WSW,239,15.0,16.0,70,0.00,,,0.00,WUHU216DAVISVP2,2013-07-28 23:23:00,
2013-07-28 16:28:00,65.0,55.0,30.03,SSW,207,4.0,16.0,70,0.00,,,0.00,WUHU216DAVISVP2,2013-07-28 23:28:00,
2013-07-28 16:33:00,64.9,54.6,30.03,WSW,248,8.0,16.0,69,0.00,,,0.00,WUHU216DAVISVP2,2013-07-28 23:33:00,
2013-07-28 16:38:00,64.7,54.8,30.03,SW,218,8.0,15.0,70,0.00,,,0.00,WUHU216DAVISVP2,2013-07-28 23:38:00,
2013-07-28 16:43:00,64.9,54.5,30.03,WSW,250,6.0,15.0,69,0.00,,,0.00,WUHU216DAVISVP2,2013-07-28 23:43:00,
2013-07-28 16:48:00,64.7,54.5,30.03,SW,225,14.0,18.0,69,0.00,,,0.00,WUHU216DAVISVP2,2013-07-28 23:48:00,
2013-07-28 16:53:00,64.9,55.0,30.02,SW,231,11.0,18.0,70,0.00,,,0.00,WUHU216DAVISVP2,2013-07-28 23:53:00,
2013-07-28 16:58:00,64.5,54.7,30.02,SW,225,9.0,18.0,70,0.00,,,0.00,WUHU216DAVISVP2,2013-07-28 23:58:00,
2013-07-28 17:03:00,65.1,54.8,30.02,SSW,205,6.0,18.0,69,0.00,,,0.00,WUHU216DAVISVP2,2013-07-29 00:03:00,
2013-07-28 17:08:00,65.5,54.8,30.02,SSW,207,9.0,17.0,68,0.00,,,0.00,WUHU216DAVISVP2,2013-07-29 00:08:00,
2013-07-28 17:13:00,65.2,54.5,30.02,SW,231,9.0,17.0,68,0.00,,,0.00,WUHU216DAVISVP2,2013-07-29 00:13:00,
2013-07-28 17:18:00,64.9,54.6,30.02,SW,225,7.0,14.0,69,0.00,,,0.00,WUHU216DAVISVP2,2013-07-29 00:18:00,
2013-07-28 17:23:00,65.3,55.0,30.02,SW,225,6.0,14.0,69,0.00,,,0.00,WUHU216DAVISVP2,2013-07-29 00:23:00,
2013-07-28 17:28:00,65.5,54.8,30.01,SW,226,11.0,13.0,68,0.00,,,0.00,WUHU216DAVISVP2,2013-07-29 00:28:00,
2013-07-28 17:33:00,65.4,54.7,30.01,WSW,245,11.0,14.0,68,0.00,,,0.00,WUHU216DAVISVP2,2013-07-29 00:33:00,
2013-07-28 17:38:00,65.4,54.7,30.01,WSW,239,7.0,14.0,68,0.00,,,0.00,WUHU216DAVISVP2,2013-07-29 00:38:00,
2013-07-28 17:43:00,65.8,55.1,30.01,South,176,6.0,14.0,68,0.00,,,0.00,WUHU216DAVISVP2,2013-07-29 00:43:00,
2013-07-28 17:48:00,65.7,54.6,30.01,SW,232,15.0,15.0,67,0.00,,,0.00,WUHU216DAVISVP2,2013-07-29 00:48:00,
2013-07-28 17:53:00,65.6,54.5,30.01,SW,228,7.0,15.0,67,0.00,,,0.00,WUHU216DAVISVP2,2013-07-29 00:53:00,
2013-07-28 17:58:00,65.5,54.8,30.00,SSW,207,8.0,15.0,68,0.00,,,0.00,WUHU216DAVISVP2,2013-07-29 00:58:00,
2013-07-28 18:03:00,65.6,54.8,30.01,SW,226,5.0,15.0,68,0.00,,,0.00,WUHU216DAVISVP2,2013-07-29 01:03:00,
2013-07-28 18:08:00,65.7,55.0,30.00,WSW,239,7.0,15.0,68,0.00,,,0.00,WUHU216DAVISVP2,2013-07-29 01:08:00,
2013-07-28 18:13:00,65.9,54.8,30.00,WSW,248,5.0,15.0,67,0.00,,,0.00,WUHU216DAVISVP2,2013-07-29 01:13:00,
2013-07-28 18:18:00,65.9,54.4,30.00,WSW,253,8.0,15.0,66,0.00,,,0.00,WUHU216DAVISVP2,2013-07-29 01:18:00,
2013-07-28 18:24:00,65.8,54.7,30.00,SSW,207,7.0,14.0,67,0.00,,,0.00,WUHU216DAVISVP2,2013-07-29 01:24:00,
2013-07-28 18:29:00,66.2,54.7,30.00,SW,236,5.0,14.0,66,0.00,,,0.00,WUHU216DAVISVP2,2013-07-29 01:29:00,
2013-07-28 18:34:00,66.3,54.8,30.00,South,176,1.0,13.0,66,0.00,,,0.00,WUHU216DAVISVP2,2013-07-29 01:34:00,
2013-07-28 18:39:00,66.1,54.6,30.00,WSW,241,9.0,13.0,66,0.00,,,0.00,WUHU216DAVISVP2,2013-07-29 01:39:00,
2013-07-28 18:45:00,66.1,54.6,30.00,WSW,250,5.0,13.0,66,0.00,,,0.00,WUHU216DAVISVP2,2013-07-29 01:45:00,
2013-07-28 18:50:00,66.4,54.5,30.00,West,264,6.0,12.0,65,0.00,,,0.00,WUHU216DAVISVP2,2013-07-29 01:50:00,
2013-07-28 18:55:00,66.1,54.2,30.00,SW,236,7.0,12.0,65,0.00,,,0.00,WUHU216DAVISVP2,2013-07-29 01:55:00,
2013-07-28 19:00:00,65.8,54.3,30.00,SW,225,6.0,12.0,66,0.00,,,0.00,WUHU216DAVISVP2,2013-07-29 02:00:00,
2013-07-28 19:05:00,65.8,54.7,30.00,SSW,196,4.0,12.0,67,0.00,,,0.00,WUHU216DAVISVP2,2013-07-29 02:05:00,
2013-07-28 19:10:00,65.8,54.7,30.00,SSW,200,6.0,11.0,67,0.00,,,0.00,WUHU216DAVISVP2,2013-07-29 02:10:00,
2013-07-28 19:15:00,65.5,54.4,30.00,SSE,151,3.0,11.0,67,0.00,,,0.00,WUHU216DAVISVP2,2013-07-29 02:15:00,
2013-07-28 19:20:00,65.4,54.2,30.00,SW,221,5.0,11.0,67,0.00,,,0.00,WUHU216DAVISVP2,2013-07-29 02:20:00,
2013-07-28 19:25:00,65.0,53.9,30.00,SW,217,4.0,12.0,67,0.00,,,0.00,WUHU216DAVISVP2,2013-07-29 02:25:00,
2013-07-28 19:30:00,65.0,54.3,30.00,South,188,7.0,12.0,68,0.00,,,0.00,WUHU216DAVISVP2,2013-07-29 02:30:00,
2013-07-28 19:36:00,64.7,54.1,30.00,SW,233,5.0,11.0,68,0.00,,,0.00,WUHU216DAVISVP2,2013-07-29 02:36:00,
2013-07-28 19:41:00,64.7,54.1,30.00,WSW,241,7.0,11.0,68,0.00,,,0.00,WUHU216DAVISVP2,2013-07-29 02:41:00,
2013-07-28 19:46:00,64.6,54.0,30.00,WSW,253,4.0,11.0,68,0.00,,,0.00,WUHU216DAVISVP2,2013-07-29 02:46:00,
2013-07-28 19:51:00,64.6,54.0,30.00,WSW,237,14.0,14.0,68,0.00,,,0.00,WUHU216DAVISVP2,2013-07-29 02:51:00,
2013-07-28 19:57:00,64.5,54.1,30.00,WSW,243,4.0,14.0,69,0.00,,,0.00,WUHU216DAVISVP2,2013-07-29 02:57:00,
2013-07-28 20:02:00,64.4,54.2,30.00,SW,224,9.0,14.0,69,0.00,,,0.00,WUHU216DAVISVP2,2013-07-29 03:02:00,
2013-07-28 20:07:00,64.3,53.9,30.00,WSW,248,7.0,14.0,69,0.00,,,0.00,WUHU216DAVISVP2,2013-07-29 03:07:00,
2013-07-28 20:12:00,64.1,54.3,30.00,WSW,241,9.0,13.0,70,0.00,,,0.00,WUHU216DAVISVP2,2013-07-29 03:12:00,
2013-07-28 20:17:00,63.9,53.9,30.00,WSW,239,4.0,13.0,70,0.00,,,0.00,WUHU216DAVISVP2,2013-07-29 03:17:00,
2013-07-28 20:22:00,63.5,54.1,30.00,South,187,2.0,11.0,71,0.00,,,0.00,WUHU216DAVISVP2,2013-07-29 03:22:00,
2013-07-28 20:27:00,63.2,54.0,30.00,SW,234,5.0,11.0,72,0.00,,,0.00,WUHU216DAVISVP2,2013-07-29 03:27:00,
2013-07-28 20:33:00,62.9,53.9,30.00,WSW,246,8.0,13.0,72,0.00,,,0.00,WUHU216DAVISVP2,2013-07-29 03:33:00,
2013-07-28 20:38:00,62.7,53.9,30.00,WSW,238,3.0,13.0,73,0.00,,,0.00,WUHU216DAVISVP2,2013-07-29 03:38:00,
2013-07-28 20:43:00,62.5,53.9,30.00,SW,219,2.0,12.0,73,0.00,,,0.00,WUHU216DAVISVP2,2013-07-29 03:43:00,
2013-07-28 20:48:00,62.2,53.6,30.00,SSW,205,7.0,12.0,73,0.00,,,0.00,WUHU216DAVISVP2,2013-07-29 03:48:00,
2013-07-28 20:53:00,61.9,53.6,30.00,SW,229,4.0,12.0,74,0.00,,,0.00,WUHU216DAVISVP2,2013-07-29 03:53:00,
2013-07-28 20:58:00,61.7,53.4,30.00,WSW,242,5.0,12.0,74,0.00,,,0.00,WUHU216DAVISVP2,2013-07-29 03:58:00,
2013-07-28 21:01:00,61.6,53.3,30.01,WSW,258,4.0,11.0,74,0.00,,,0.00,WUHU216DAVISVP2,2013-07-29 04:01:00,
2013-07-28 21:02:00,61.6,53.3,30.01,SW,226,7.0,12.0,74,0.00,,,0.00,WUHU216DAVISVP2,2013-07-29 04:02:00,
2013-07-28 21:07:00,61.4,53.5,30.01,SW,233,7.0,12.0,75,0.00,,,0.00,WUHU216DAVISVP2,2013-07-29 04:07:00,
2013-07-28 21:12:00,61.1,53.2,30.01,West,259,7.0,12.0,75,0.00,,,0.00,WUHU216DAVISVP2,2013-07-29 04:12:00,
2013-07-28 21:17:00,60.7,53.2,30.01,SW,225,2.0,12.0,76,0.00,,,0.00,WUHU216DAVISVP2,2013-07-29 04:17:00,
2013-07-28 21:22:00,60.5,52.9,30.01,SW,232,3.0,12.0,76,0.00,,,0.00,WUHU216DAVISVP2,2013-07-29 04:22:00,
2013-07-28 21:27:00,60.3,53.1,30.01,East,86,2.0,12.0,77,0.00,,,0.00,WUHU216DAVISVP2,2013-07-29 04:27:00,
2013-07-28 21:32:00,60.1,53.0,30.01,South,191,5.0,12.0,77,0.00,,,0.00,WUHU216DAVISVP2,2013-07-29 04:32:00,
2013-07-28 21:37:00,59.9,52.8,30.01,SW,233,6.0,11.0,77,0.00,,,0.00,WUHU216DAVISVP2,2013-07-29 04:37:00,
2013-07-28 21:42:00,59.7,52.9,30.01,WSW,242,8.0,11.0,78,0.00,,,0.00,WUHU216DAVISVP2,2013-07-29 04:42:00,
2013-07-28 21:47:00,59.6,52.7,30.01,SW,222,7.0,11.0,78,0.00,,,0.00,WUHU216DAVISVP2,2013-07-29 04:47:00,
2013-07-28 21:52:00,59.4,52.6,30.01,WNW,285,5.0,11.0,78,0.00,,,0.00,WUHU216DAVISVP2,2013-07-29 04:52:00,
2013-07-28 21:57:00,59.3,52.9,30.01,WSW,240,7.0,11.0,79,0.00,,,0.00,WUHU216DAVISVP2,2013-07-29 04:57:00,
2013-07-28 22:02:00,59.1,52.7,30.02,WSW,257,5.0,13.0,79,0.00,,,0.00,WUHU216DAVISVP2,2013-07-29 05:02:00,
2013-07-28 22:07:00,58.9,52.8,30.02,SSW,212,8.0,13.0,80,0.00,,,0.00,WUHU216DAVISVP2,2013-07-29 05:07:00,
2013-07-28 22:12:00,58.8,52.7,30.02,SSW,203,9.0,13.0,80,0.00,,,0.00,WUHU216DAVISVP2,2013-07-29 05:12:00,
2013-07-28 22:17:00,58.6,52.5,30.02,WSW,256,7.0,12.0,80,0.00,,,0.00,WUHU216DAVISVP2,2013-07-29 05:17:00,
2013-07-28 22:22:00,58.4,52.6,30.02,SW,217,6.0,14.0,81,0.00,,,0.00,WUHU216DAVISVP2,2013-07-29 05:22:00,
2013-07-28 22:27:00,58.3,52.5,30.02,SSE,152,6.0,14.0,81,0.00,,,0.00,WUHU216DAVISVP2,2013-07-29 05:27:00,
2013-07-28 22:32:00,58.2,52.4,30.02,SW,233,2.0,13.0,81,0.00,,,0.00,WUHU216DAVISVP2,2013-07-29 05:32:00,
2013-07-28 22:37:00,58.1,52.7,30.02,South,191,3.0,13.0,82,0.00,,,0.00,WUHU216DAVISVP2,2013-07-29 05:37:00,
2013-07-28 22:42:00,58.0,52.6,30.02,SW,232,8.0,12.0,82,0.00,,,0.00,WUHU216DAVISVP2,2013-07-29 05:42:00,
2013-07-28 22:47:00,57.9,52.4,30.02,WSW,253,3.0,12.0,82,0.00,,,0.00,WUHU216DAVISVP2,2013-07-29 05:47:00,
2013-07-28 22:52:00,57.8,52.4,30.02,SW,232,8.0,11.0,82,0.00,,,0.00,WUHU216DAVISVP2,2013-07-29 05:52:00,
2013-07-28 22:57:00,57.7,52.3,30.02,WSW,250,3.0,11.0,82,0.00,,,0.00,WUHU216DAVISVP2,2013-07-29 05:57:00,
2013-07-28 23:02:00,57.6,52.2,30.02,SW,218,3.0,11.0,82,0.00,,,0.00,WUHU216DAVISVP2,2013-07-29 06:02:00,
2013-07-28 23:07:00,57.5,52.4,30.02,SW,224,4.0,10.0,83,0.00,,,0.00,WUHU216DAVISVP2,2013-07-29 06:07:00,
2013-07-28 23:12:00,57.5,52.4,30.02,SW,236,6.0,9.0,83,0.00,,,0.00,WUHU216DAVISVP2,2013-07-29 06:12:00,
2013-07-28 23:17:00,57.4,52.3,30.02,SW,215,6.0,11.0,83,0.00,,,0.00,WUHU216DAVISVP2,2013-07-29 06:17:00,
2013-07-28 23:22:00,57.4,52.3,30.03,SSW,200,6.0,11.0,83,0.00,,,0.00,WUHU216DAVISVP2,2013-07-29 06:22:00,
2013-07-28 23:27:00,57.3,52.2,30.03,SW,226,3.0,10.0,83,0.00,,,0.00,WUHU216DAVISVP2,2013-07-29 06:27:00,
2013-07-28 23:32:00,57.2,52.1,30.03,WSW,239,3.0,11.0,83,0.00,,,0.00,WUHU216DAVISVP2,2013-07-29 06:32:00,
2013-07-28 23:37:00,57.1,52.0,30.02,SSW,207,3.0,11.0,83,0.00,,,0.00,WUHU216DAVISVP2,2013-07-29 06:37:00,
2013-07-28 23:42:00,57.0,52.2,30.02,SW,234,6.0,11.0,84,0.00,,,0.00,WUHU216DAVISVP2,2013-07-29 06:42:00,
2013-07-28 23:47:00,56.9,52.1,30.02,WSW,248,6.0,11.0,84,0.00,,,0.00,WUHU216DAVISVP2,2013-07-29 06:47:00,
2013-07-28 23:52:00,56.8,52.0,30.02,WSW,255,6.0,11.0,84,0.00,,,0.00,WUHU216DAVISVP2,2013-07-29 06:52:00,
2013-07-28 23:57:00,56.8,52.0,30.02,WSW,240,4.0,10.0,84,0.00,,,0.00,WUHU216DAVISVP2,2013-07-29 06:57:00,